Location: *
(41.7492°S, 135.4150°W)
Time: 17:56:09
(UTC+00:00)

ALOS - Pass Details

Date: 20 September 2021
Orbit: 682 x 685 km, 97.9° (Epoch: 16 October)

Event Time Altitude Azimuth Distance (km) Brightness Sun altitude
Exits shadow 12:59:08 13° 216° (SW) 1,964 4.4 -21.8°
Drops below altitude 10° 12:59:42 10° 213° (SSW) 2,165 4.7 -21.7°
Sets 13:02:12 0° 202° (SSW) 3,090 5.6 -21.3°
